Погода в Эльтоне

Погода в Эльтоне : погода сейчас, прогноз погоды и архив. Всё, что Вы хотите узнать о погоде в Эльтоне!

Хотите узнать прогноз погоды в Эльтоне? Тогда Вам сюда: Погода в Эльтоне

Поиск расширенной информации на нашем сайте:

Полезная информация: Мешки для мусора хабаровск посмотреть.

Другие новости

Новости СМИ2

Главная страница сайта

Новости сайта

02.10.2013

Напоминаем, что на нашем новом сайте вы можете получить высокодетализированные прогнозы погоды по пунктам России, СНГ и мира (включающие важные для авиации метеовеличины, такие как направление и скорость ветра, видимость, явления погоды, количество и форма облачности, нижняя и верхняя граница облачности), а также ознакомиться с разнообразными материалами по авиационной метеорологии и подборкой полезных ссылок на эту тему.

Сайт Метеоцентр.Азия посвящён разработке технологий оптимизации авиаметеорологического обслуживания, включая проектирование и перспективное создание нескольких автоматизированных авиаметеорологических систем:
- система выпуска высокодетальных прогностических карт явлений погоды для нижнего воздушного пространства по России и ближнему зарубежью;
- система верификации прогнозов TAF (выпускаемых синоптиками официальных АМСГ РФ и ближнего зарубежья) и AUTOTAF (выпускаемых сайтом Метеоцентр.Азия) - выявление ошибок, онлайн-сопоставление с фактической погодой METAR, автоматическое внесение коррективов в прогнозы при резком отклонении фактической погоды от прогноза, подсчёт оправдываемости прогнозов по элементам и в целом;
- система обработки, анализа и отображения авиаметеорологической информации для применения провайдерами метеорологической информации.

Рекомендуем: Телохранитель хабаровск на http://bastiondv.ru.

Погода в Эльтоне - сегодня

Время (UTC), дата Ветер
(°,м/с) 
Видим.   Явления Облачность Т
(°С)
Тd
(°С)
f(%) Тe
(°С)
Pmin
(гПа)
dP
(гПа)
Po
(мм)
O2
(г/м3)
Тmin Tmax R s Состояние
почвы
09 18.01.17 330 (СЗ) 20000 м    10/10 300 м 
[St]
-8.3 -11.2 80 -11  1034  0.4  775  323           
12 18.01.17 340 (С) 10 км  снежные зёрна  10/10 300 м 
[St]
-7.5 -10.1 82 -10  1033.7  -0.3  775  322           
15 18.01.17 360 (С) 20000 м  {снег}  8/5 600 м средняя 
[Sc|Ac trans]
-9.1 -11.8 81 -12  1034.4  0.8  775  324    -7.4  0.0     
18 18.01.17 010 (С) 20000 м  {снег}  1/0 средняя 
[Ac trans]
-12.9 -14.9 85 -16  1034.9  0.4  776  329           
21 18.01.17 010 (С) 4000 м  дымка{снег}  10/10 300 м 
[St]
-11.3 -12.8 89 -13  1034.9  0.1  776  327           
00 19.01.17 310 (СЗ) 4000 м  дымка{туман} [диам. изморози 1 мм]  10/10 300 м 
[St]
-8.9 -10.2 90 -11  1034.5  -0.4  775  324           
03 19.01.17 330 (СЗ) 20000 м  [диам. изморози 1 мм]  10/10 300 м 
[St]
-8.2 -10.1 86 -12  1034.5  775  323  -15.3    0.0  16  равномерный
мокрый или
старый снег
100% 
06 19.01.17 280 (З) 10 км  слаб. снег [диам. изморози 0 мм]  10/10 300 м 
[Frnb|Ns]
-7.5 -9.3 87 -11  1034.8  0.3  776  322           
09 19.01.17 270 (З) 20000 м  {снег}  8/0 средняя 
[Ac trans]
-7.3 -9.8 82 -12  1034.2  -0.6  775  322           
12 19.01.17 280 (З) 20000 м  {снег}  3/0 средняя 
[Ac trans]
-6.6 -9.8 78 -11  1033.1  -1.1  774  321           
15 19.01.17 260 (З) 20000 м    ясно 
-11.6 -13.4 86 -15  1032.7  -1.1  774  327    -6.4  0.0     
18 19.01.17 230 (ЮЗ) 20000 м    ясно 
-14.8 -16.5 87 -17  1032.3  -0.4  774  331           
21 19.01.17 330 (СЗ) 20000 м    ясно 
-11.8 -13.5 87 -12  1031.2  -1.1  773  327           
00 20.01.17 230 (ЮЗ) 20000 м    ясно 
-13.7 -15.4 87 -18  1029.4  -1.8  771  329           
03 20.01.17 220 (ЮЗ) 20000 м    6/6 300 м 
[St]
-11 -12.5 89 -16  1027.7  -1.7  770  325  -15.7      16  равномерный
сухой снег
100% 
06 20.01.17 220 (ЮЗ) 8-12{12}  20000 м    8/0 средняя, верхняя 
[Ac trans|Ci]
-9 -10.7 87 -15  1025.9  -1.8  769  321           
09 20.01.17 230 (ЮЗ) 10-14{14}  20000 м  позёмок  9/0 средняя, верхняя 
[Ac trans|Ci]
-6.5 -9.2 81 -13  1023.6  -2.3  767  318           
12 20.01.17 220 (ЮЗ) 10-14{15}  20000 м  позёмок  9/5 300 м средняя 
[St|Ac trans]
-6 -8.9 80 -12  1020.1  -3.4  764  316           
15 20.01.17 240 (ЮЗ) 8-11{14}  4000 м  снег  10/10 300 м 
[Frnb|Ns]
-5.9 -7.9 86 -11  1018.8  -1.3  764  315    -5.5  0.0     
18 20.01.17 260 (З) 8-11{11}  10 км  слаб. снег  10/10 300 м 
[Frnb|Ns]
-5.9 -7.2 91 -11  1018.2  -0.6  763  315           
21 20.01.17 270 (З) 8-11{12}  4000 м  позёмок{снег}  10/10 300 м 
[St]
-6.4 -8 88 -12  1017.7  -0.4  763  316           
00 21.01.17 270 (З) 7{11}  10 км  позёмок{снег}  10/10 300 м 
[St]
-6 -7.7 88 -11  1017.2  -0.5  762  315           
03 21.01.17 240 (ЮЗ) 20000 м    10/10 300 м 
[St]
-5.5 -7.3 87 -9  1016.3  -0.9  762  314  -6.4      16  равномерный
сухой снег
100% 
06 21.01.17 240 (ЮЗ) 20000 м    10/10 300 м 
[St]
-4.8 -6.8 86 -10  1016.4  0.1  762  313           
09 21.01.17 240 (ЮЗ) 9-11{12}  20000 м  позёмок  10/10 300 м 
[St]
-3.7 -6.2 83 -9  1015.1  -1.2  761  311           
Время (UTC), дата Ветер
(°,м/с) 
Видим.   Явления Облачность Т
(°С)
Тd
(°С)
f(%) Тe
(°С)
Pmin
(гПа)
dP
(гПа)
Po
(мм)
O2
(г/м3)
Тmin Tmax R s Состояние
почвы

Для получения пояснительной информации подведите курсор к названию столбца.

ПОГОДА в Эльтоне - архив

Всё, что Вы хотите узнать о погоде в Эльтоне - удобно и подробно!

Выберите нужную дату (начиная с 1 января 2015* года) и нажмите кнопку "Найти".
Будут отображены архивные сводки погоды по пункту Эльтон, начиная с указанной даты.


Отображать данные в формате CSV (для использования в таблицах Excel)


Внимание! Наш архив погоды предназначен исключительно для личного некоммерческого использования в познавательных целях. Если Вам необходимы официальные справки о состоянии погоды (для производственных, юридических, коммерческих и т.п. целей), обращайтесь в органы Росгидромета.

*Примечание: данная дата относится к архиву по метеостанциям СССР (Россия, СНГ, Балтия).
Архив по метеостанциям Зарубежной Европы и Азии (кроме Китая) хранится 10 дней, по другим регионам земного шара (Китай, Африка, Америка, Австралия, Океания) - 1 день.

Эльтон - район местоположения метеостанции


Название, широта, долгота, высота метеостанции:
Эльтон 49.1°ш. 46.9°д. 6 м над ур. моря [Российская Федерация]

Дополнительная информация

В oтличие oт бoльшинства пoгoдных сайтoв мы публикуем пoдрoбную метеoинфoрмацию в детальнoм прoфессиoнальнoм фoрмате.

Характеристики температуры и влажнoсти вoздуха измеряются на высoте 2 м в тени вдали oт зданий и деревьев.
Скoрoсть ветра измеряется на высoте 10 м (на урoвне рoста челoвека скoрoсть ветра ниже в 1.5-2 раза). Если метеoстанция нахoдится в гoрoде или в лесу, тo скoрoсть ветра занижена на 2-4 м/с пo сравнению с oткрытым местoм. Скoрoсть ветра над акватoриями крупных рек и oзёр, а также на вершинах хoлмoв на 2-5 м/с выше, чем в oбычных услoвиях.
Атмoсфернoе давление в разных тoчках местнoсти мoжет значительнo oтличаться oт давления на метеoстанции, в зависимoсти oт услoвий рельефа (при пoдъёме на 10 м давление пoнижается примернo на 1 мм рт.ст.).